Year,Month,Day,Hour,Minute,Value (Times are PST for temperature in C)
2012,09,26,00,00,11.10
2012,09,26,00,01,11.10
2012,09,26,00,02,11.10
2012,09,26,00,03,11.10
2012,09,26,00,04,11.10
2012,09,26,00,05,11.10
2012,09,26,00,06,11.00
2012,09,26,00,07,11.00
2012,09,26,00,08,11.00
2012,09,26,00,09,11.00
2012,09,26,00,10,11.00
2012,09,26,00,11,11.00
2012,09,26,00,12,11.00
2012,09,26,00,13,11.00
2012,09,26,00,14,11.00
2012,09,26,00,15,11.00
2012,09,26,00,16,10.90
2012,09,26,00,17,10.90
2012,09,26,00,18,10.90
2012,09,26,00,19,10.90
2012,09,26,00,20,10.90
2012,09,26,00,21,10.90
2012,09,26,00,22,10.90
2012,09,26,00,23,10.90
2012,09,26,00,24,10.90
2012,09,26,00,25,10.90
2012,09,26,00,26,10.90
2012,09,26,00,27,10.90
2012,09,26,00,28,10.90
2012,09,26,00,29,10.80
2012,09,26,00,30,10.80
2012,09,26,00,31,10.80
2012,09,26,00,32,10.80
2012,09,26,00,33,10.80
2012,09,26,00,34,10.80
2012,09,26,00,35,10.80
2012,09,26,00,36,10.80
2012,09,26,00,37,10.80
2012,09,26,00,38,10.80
2012,09,26,00,39,10.80
2012,09,26,00,40,10.80
2012,09,26,00,41,10.80
2012,09,26,00,42,10.80
2012,09,26,00,43,10.80
2012,09,26,00,44,10.80
2012,09,26,00,45,10.80
2012,09,26,00,46,10.80
2012,09,26,00,47,10.80
2012,09,26,00,48,10.80
2012,09,26,00,49,10.80
2012,09,26,00,50,10.80
2012,09,26,00,51,10.80
2012,09,26,00,52,10.80
2012,09,26,00,53,10.80
2012,09,26,00,54,10.80
2012,09,26,00,55,10.80
2012,09,26,00,56,10.80
2012,09,26,00,57,10.80
2012,09,26,00,58,10.80
2012,09,26,00,59,10.80
2012,09,26,01,00,10.80
2012,09,26,01,01,10.80
2012,09,26,01,02,10.80
2012,09,26,01,03,10.90
2012,09,26,01,04,10.90
2012,09,26,01,05,10.90
2012,09,26,01,06,10.90
2012,09,26,01,07,10.90
2012,09,26,01,08,10.90
2012,09,26,01,09,10.90
2012,09,26,01,10,10.90
2012,09,26,01,11,10.90
2012,09,26,01,12,11.00
2012,09,26,01,13,11.00
2012,09,26,01,14,11.00
2012,09,26,01,15,11.00
2012,09,26,01,16,10.90
2012,09,26,01,17,10.90
2012,09,26,01,18,10.90
2012,09,26,01,19,10.90
2012,09,26,01,20,10.90
2012,09,26,01,21,10.90
2012,09,26,01,22,10.90
2012,09,26,01,23,10.90
2012,09,26,01,24,10.90
2012,09,26,01,25,10.90
2012,09,26,01,26,10.90
2012,09,26,01,27,10.90
2012,09,26,01,28,10.90
2012,09,26,01,29,10.90
2012,09,26,01,30,10.90
2012,09,26,01,31,10.90
2012,09,26,01,32,10.90
2012,09,26,01,33,10.90
2012,09,26,01,34,10.90
2012,09,26,01,35,10.90
2012,09,26,01,36,10.80
2012,09,26,01,37,10.80
2012,09,26,01,38,10.80
2012,09,26,01,39,10.80
2012,09,26,01,40,10.80
2012,09,26,01,41,10.80
2012,09,26,01,42,10.80
2012,09,26,01,43,10.80
2012,09,26,01,44,10.80
2012,09,26,01,45,10.80
2012,09,26,01,46,10.80
2012,09,26,01,47,10.80
2012,09,26,01,48,10.80
2012,09,26,01,49,10.80
2012,09,26,01,50,10.80
2012,09,26,01,51,10.80
2012,09,26,01,52,10.80
2012,09,26,01,53,10.80
2012,09,26,01,54,10.80
2012,09,26,01,55,10.80
2012,09,26,01,56,10.80
2012,09,26,01,57,10.80
2012,09,26,01,58,10.80
2012,09,26,01,59,10.80
2012,09,26,02,00,10.80
2012,09,26,02,01,10.80
2012,09,26,02,02,10.80
2012,09,26,02,03,10.80
2012,09,26,02,04,10.80
2012,09,26,02,05,10.80
2012,09,26,02,06,10.80
2012,09,26,02,07,10.80
2012,09,26,02,08,10.80
2012,09,26,02,09,10.80
2012,09,26,02,10,10.80
2012,09,26,02,11,10.80
2012,09,26,02,12,10.80
2012,09,26,02,13,10.80
2012,09,26,02,14,10.80
2012,09,26,02,15,10.80
2012,09,26,02,16,10.80
2012,09,26,02,17,10.80
2012,09,26,02,18,10.80
2012,09,26,02,19,10.80
2012,09,26,02,20,10.80
2012,09,26,02,21,10.80
2012,09,26,02,22,10.80
2012,09,26,02,23,10.80
2012,09,26,02,24,10.80
2012,09,26,02,25,10.80
2012,09,26,02,26,10.80
2012,09,26,02,27,10.80
2012,09,26,02,28,10.80
2012,09,26,02,29,10.80
2012,09,26,02,30,10.80
2012,09,26,02,31,10.80
2012,09,26,02,32,10.80
2012,09,26,02,33,10.80
2012,09,26,02,34,10.80
2012,09,26,02,35,10.70
2012,09,26,02,36,10.70
2012,09,26,02,37,10.80
2012,09,26,02,38,10.80
2012,09,26,02,39,10.80
2012,09,26,02,40,10.80
2012,09,26,02,41,10.80
2012,09,26,02,42,10.80
2012,09,26,02,43,10.80
2012,09,26,02,44,10.70
2012,09,26,02,45,10.70
2012,09,26,02,46,10.70
2012,09,26,02,47,10.70
2012,09,26,02,48,10.70
2012,09,26,02,49,10.70
2012,09,26,02,50,10.70
2012,09,26,02,51,10.70
2012,09,26,02,52,10.70
2012,09,26,02,53,10.70
2012,09,26,02,54,10.70
2012,09,26,02,55,10.70
2012,09,26,02,56,10.70
2012,09,26,02,57,10.70
2012,09,26,02,58,10.70
2012,09,26,02,59,10.70
2012,09,26,03,00,10.60
2012,09,26,03,01,10.60
2012,09,26,03,02,10.60
2012,09,26,03,03,10.60
2012,09,26,03,04,10.60
2012,09,26,03,05,10.60
2012,09,26,03,06,10.60
2012,09,26,03,07,10.50
2012,09,26,03,08,10.50
2012,09,26,03,09,10.50
2012,09,26,03,10,10.50
2012,09,26,03,11,10.50
2012,09,26,03,12,10.50
2012,09,26,03,13,10.50
2012,09,26,03,14,10.50
2012,09,26,03,15,10.40
2012,09,26,03,16,10.40
2012,09,26,03,17,10.40
2012,09,26,03,18,10.40
2012,09,26,03,19,10.40
2012,09,26,03,20,10.30
2012,09,26,03,21,10.30
2012,09,26,03,22,10.30
2012,09,26,03,23,10.30
2012,09,26,03,24,10.30
2012,09,26,03,25,10.30
2012,09,26,03,26,10.30
2012,09,26,03,27,10.30
2012,09,26,03,28,10.30
2012,09,26,03,29,10.20
2012,09,26,03,30,10.20
2012,09,26,03,31,10.20
2012,09,26,03,32,10.20
2012,09,26,03,33,10.20
2012,09,26,03,34,10.20
2012,09,26,03,35,10.20
2012,09,26,03,36,10.20
2012,09,26,03,37,10.20
2012,09,26,03,38,10.20
2012,09,26,03,39,10.20
2012,09,26,03,40,10.20
2012,09,26,03,41,10.10
2012,09,26,03,42,10.10
2012,09,26,03,43,10.10
2012,09,26,03,44,10.10
2012,09,26,03,45,10.10
2012,09,26,03,46,10.10
2012,09,26,03,47,10.10
2012,09,26,03,48,10.10
2012,09,26,03,49,10.10
2012,09,26,03,50,10.10
2012,09,26,03,51,10.10
2012,09,26,03,52,10.10
2012,09,26,03,53,10.10
2012,09,26,03,54,10.10
2012,09,26,03,55,10.10
2012,09,26,03,56,10.10
2012,09,26,03,57,10.10
2012,09,26,03,58,10.10
2012,09,26,03,59,10.10
2012,09,26,04,00,10.10
2012,09,26,04,01,10.10
2012,09,26,04,02,10.00
2012,09,26,04,03,10.10
2012,09,26,04,04,10.10
2012,09,26,04,05,10.10
2012,09,26,04,06,10.10
2012,09,26,04,07,10.10
2012,09,26,04,08,10.10
2012,09,26,04,09,10.10
2012,09,26,04,10,10.10
2012,09,26,04,11,10.10
2012,09,26,04,12,10.10
2012,09,26,04,13,10.10
2012,09,26,04,14,10.10
2012,09,26,04,15,10.10
2012,09,26,04,16,10.10
2012,09,26,04,17,10.20
2012,09,26,04,18,10.20
2012,09,26,04,19,10.20
2012,09,26,04,20,10.10
2012,09,26,04,21,10.10
2012,09,26,04,22,10.10
2012,09,26,04,23,10.10
2012,09,26,04,24,10.10
2012,09,26,04,25,10.10
2012,09,26,04,26,10.10
2012,09,26,04,27,10.10
2012,09,26,04,28,10.10
2012,09,26,04,29,10.10
2012,09,26,04,30,10.10
2012,09,26,04,31,10.10
2012,09,26,04,32,10.10
2012,09,26,04,33,10.10
2012,09,26,04,34,10.10
2012,09,26,04,35,10.10
2012,09,26,04,36,10.10
2012,09,26,04,37,10.10
2012,09,26,04,38,10.10
2012,09,26,04,39,10.10
2012,09,26,04,40,10.10
2012,09,26,04,41,10.10
2012,09,26,04,42,10.10
2012,09,26,04,43,10.10
2012,09,26,04,44,10.10
2012,09,26,04,45,10.10
2012,09,26,04,46,10.10
2012,09,26,04,47,10.10
2012,09,26,04,48,10.10
2012,09,26,04,49,10.10
2012,09,26,04,50,10.10
2012,09,26,04,51,10.10
2012,09,26,04,52,10.10
2012,09,26,04,53,10.10
2012,09,26,04,54,10.10
2012,09,26,04,55,10.10
2012,09,26,04,56,10.10
2012,09,26,04,57,10.10
2012,09,26,04,58,10.20
2012,09,26,04,59,10.20
2012,09,26,05,00,10.20
2012,09,26,05,01,10.20
2012,09,26,05,02,10.10
2012,09,26,05,03,10.10
2012,09,26,05,04,10.10
2012,09,26,05,05,10.10
2012,09,26,05,06,10.10
2012,09,26,05,07,10.10
2012,09,26,05,08,10.10
2012,09,26,05,09,10.10
2012,09,26,05,10,10.10
2012,09,26,05,11,10.10
2012,09,26,05,12,10.10
2012,09,26,05,13,10.10
2012,09,26,05,14,10.10
2012,09,26,05,15,10.10
2012,09,26,05,16,10.10
2012,09,26,05,17,10.00
2012,09,26,05,18,10.10
2012,09,26,05,19,10.10
2012,09,26,05,20,10.10
2012,09,26,05,21,10.10
2012,09,26,05,22,10.10
2012,09,26,05,23,10.10
2012,09,26,05,24,10.10
2012,09,26,05,25,10.10
2012,09,26,05,26,10.10
2012,09,26,05,27,10.10
2012,09,26,05,28,10.10
2012,09,26,05,29,10.10
2012,09,26,05,30,10.10
2012,09,26,05,31,10.10
2012,09,26,05,32,10.10
2012,09,26,05,33,10.20
2012,09,26,05,34,10.20
2012,09,26,05,35,10.20
2012,09,26,05,36,10.20
2012,09,26,05,37,10.20
2012,09,26,05,38,10.20
2012,09,26,05,39,10.20
2012,09,26,05,40,10.20
2012,09,26,05,41,10.20
2012,09,26,05,42,10.30
2012,09,26,05,43,10.30
2012,09,26,05,44,10.30
2012,09,26,05,45,10.30
2012,09,26,05,46,10.30
2012,09,26,05,47,10.30
2012,09,26,05,48,10.30
2012,09,26,05,49,10.30
2012,09,26,05,50,10.30
2012,09,26,05,51,10.30
2012,09,26,05,52,10.30
2012,09,26,05,53,10.30
2012,09,26,05,54,10.30
2012,09,26,05,55,10.30
2012,09,26,05,56,10.30
2012,09,26,05,57,10.30
2012,09,26,05,58,10.20
2012,09,26,05,59,10.20
2012,09,26,06,00,10.20
2012,09,26,06,01,10.20
2012,09,26,06,02,10.20
2012,09,26,06,03,10.20
2012,09,26,06,04,10.20
2012,09,26,06,05,10.20
2012,09,26,06,06,10.20
2012,09,26,06,07,10.20
2012,09,26,06,08,10.20
2012,09,26,06,09,10.20
2012,09,26,06,10,10.20
2012,09,26,06,11,10.20
2012,09,26,06,12,10.20
2012,09,26,06,13,10.20
2012,09,26,06,14,10.20
2012,09,26,06,15,10.20
2012,09,26,06,16,10.30
2012,09,26,06,17,10.30
2012,09,26,06,18,10.30
2012,09,26,06,19,10.30
2012,09,26,06,20,10.30
2012,09,26,06,21,10.30
2012,09,26,06,22,10.30
2012,09,26,06,23,10.30
2012,09,26,06,24,10.30
2012,09,26,06,25,10.30
2012,09,26,06,26,10.30
2012,09,26,06,27,10.30
2012,09,26,06,28,10.30
2012,09,26,06,29,10.30
2012,09,26,06,30,10.30
2012,09,26,06,31,10.30
2012,09,26,06,32,10.30
2012,09,26,06,33,10.30
2012,09,26,06,34,10.30
2012,09,26,06,35,10.30
2012,09,26,06,36,10.30
2012,09,26,06,37,10.30
2012,09,26,06,38,10.30
2012,09,26,06,39,10.30
2012,09,26,06,40,10.30
2012,09,26,06,41,10.30
2012,09,26,06,42,10.40
2012,09,26,06,43,10.40
2012,09,26,06,44,10.40
2012,09,26,06,45,10.40
2012,09,26,06,46,10.40
2012,09,26,06,47,10.40
2012,09,26,06,48,10.40
2012,09,26,06,49,10.30
2012,09,26,06,50,10.30
2012,09,26,06,51,10.30
2012,09,26,06,52,10.30
2012,09,26,06,53,10.30
2012,09,26,06,54,10.30
2012,09,26,06,55,10.30
2012,09,26,06,56,10.30
2012,09,26,06,57,10.30
2012,09,26,06,58,10.30
2012,09,26,06,59,10.30
2012,09,26,07,00,10.30
2012,09,26,07,01,10.30
2012,09,26,07,02,10.30
2012,09,26,07,03,10.30
2012,09,26,07,04,10.30
2012,09,26,07,05,10.30
2012,09,26,07,06,10.30
2012,09,26,07,07,10.30
2012,09,26,07,08,10.30
2012,09,26,07,09,10.40
2012,09,26,07,10,10.40
2012,09,26,07,11,10.40
2012,09,26,07,12,10.40
2012,09,26,07,13,10.40
2012,09,26,07,14,10.50
2012,09,26,07,15,10.50
2012,09,26,07,16,10.50
2012,09,26,07,17,10.50
2012,09,26,07,18,10.60
2012,09,26,07,19,10.60
2012,09,26,07,20,10.60
2012,09,26,07,21,10.60
2012,09,26,07,22,10.60
2012,09,26,07,23,10.60
2012,09,26,07,24,10.60
2012,09,26,07,25,10.60
2012,09,26,07,26,10.60
2012,09,26,07,27,10.60
2012,09,26,07,28,10.60
2012,09,26,07,29,10.60
2012,09,26,07,30,10.60
2012,09,26,07,31,10.60
2012,09,26,07,32,10.60
2012,09,26,07,33,10.60
2012,09,26,07,34,10.60
2012,09,26,07,35,10.60
2012,09,26,07,36,10.60
2012,09,26,07,37,10.60
2012,09,26,07,38,10.60
2012,09,26,07,39,10.60
2012,09,26,07,40,10.60
2012,09,26,07,41,10.60
2012,09,26,07,42,10.60
2012,09,26,07,43,10.60
2012,09,26,07,44,10.60
2012,09,26,07,45,10.60
2012,09,26,07,46,10.60
2012,09,26,07,47,10.60
2012,09,26,07,48,10.60
2012,09,26,07,49,10.60
2012,09,26,07,50,10.60
2012,09,26,07,51,10.60
2012,09,26,07,52,10.60
2012,09,26,07,53,10.60
2012,09,26,07,54,10.60
2012,09,26,07,55,10.60
2012,09,26,07,56,10.60
2012,09,26,07,57,10.60
2012,09,26,07,58,10.60
2012,09,26,07,59,10.50
2012,09,26,08,00,10.50
2012,09,26,08,01,10.50
2012,09,26,08,02,10.40
2012,09,26,08,03,10.40
2012,09,26,08,04,10.40
2012,09,26,08,05,10.40
2012,09,26,08,06,10.40
2012,09,26,08,07,10.40
2012,09,26,08,08,10.40
2012,09,26,08,09,10.40
2012,09,26,08,10,10.40
2012,09,26,08,11,10.40
2012,09,26,08,12,10.40
2012,09,26,08,13,10.40
2012,09,26,08,14,10.40
2012,09,26,08,15,10.40
2012,09,26,08,16,10.40
2012,09,26,08,17,10.40
2012,09,26,08,18,10.40
2012,09,26,08,19,10.40
2012,09,26,08,20,10.40
2012,09,26,08,21,10.40
2012,09,26,08,22,10.40
2012,09,26,08,23,10.40
2012,09,26,08,24,10.40
2012,09,26,08,25,10.40
2012,09,26,08,26,10.40
2012,09,26,08,27,10.40
2012,09,26,08,28,10.40
2012,09,26,08,29,10.40
2012,09,26,08,30,10.40
2012,09,26,08,31,10.40
2012,09,26,08,32,10.30
2012,09,26,08,33,10.30
2012,09,26,08,34,10.30
2012,09,26,08,35,10.30
2012,09,26,08,36,10.30
2012,09,26,08,37,10.30
2012,09,26,08,38,10.30
2012,09,26,08,39,10.30
2012,09,26,08,40,10.40
2012,09,26,08,41,10.40
2012,09,26,08,42,10.40
2012,09,26,08,43,10.40
2012,09,26,08,44,10.40
2012,09,26,08,45,10.40
2012,09,26,08,46,10.40
2012,09,26,08,47,10.50
2012,09,26,08,48,10.50
2012,09,26,08,49,10.50
2012,09,26,08,50,10.50
2012,09,26,08,51,10.60
2012,09,26,08,52,10.60
2012,09,26,08,53,10.60
2012,09,26,08,54,10.60
2012,09,26,08,55,10.60
2012,09,26,08,56,10.60
2012,09,26,08,57,10.60
2012,09,26,08,58,10.60
2012,09,26,08,59,10.60
2012,09,26,09,00,10.60
2012,09,26,09,01,10.60
2012,09,26,09,02,10.60
2012,09,26,09,03,10.60
2012,09,26,09,04,10.60
2012,09,26,09,05,10.60
2012,09,26,09,06,10.60
2012,09,26,09,07,10.60
2012,09,26,09,08,10.70
2012,09,26,09,09,10.70
2012,09,26,09,10,10.70
2012,09,26,09,11,10.70
2012,09,26,09,12,10.70
2012,09,26,09,13,10.70
2012,09,26,09,14,10.70
2012,09,26,09,15,10.70
2012,09,26,09,16,10.80
2012,09,26,09,17,10.80
2012,09,26,09,18,10.70
2012,09,26,09,19,10.70
2012,09,26,09,20,10.70
2012,09,26,09,21,10.70
2012,09,26,09,22,10.70
2012,09,26,09,23,10.70
2012,09,26,09,24,10.70
2012,09,26,09,25,10.70
2012,09,26,09,26,10.60
2012,09,26,09,27,10.60
2012,09,26,09,28,10.60
2012,09,26,09,29,10.60
2012,09,26,09,30,10.60
2012,09,26,09,31,10.60
2012,09,26,09,32,10.60
2012,09,26,09,33,10.70
2012,09,26,09,34,10.70
2012,09,26,09,35,10.70
2012,09,26,09,36,10.70
2012,09,26,09,37,10.70
2012,09,26,09,38,10.70
2012,09,26,09,39,10.70
2012,09,26,09,40,10.70
2012,09,26,09,41,10.70
2012,09,26,09,42,10.60
2012,09,26,09,43,10.60
2012,09,26,09,44,10.60
2012,09,26,09,45,10.60
2012,09,26,09,46,10.60
2012,09,26,09,47,10.60
2012,09,26,09,48,10.60
2012,09,26,09,49,10.60
2012,09,26,09,50,10.60
2012,09,26,09,51,10.70
2012,09,26,09,52,10.70
2012,09,26,09,53,10.70
2012,09,26,09,54,10.70
2012,09,26,09,55,10.70
2012,09,26,09,56,10.70
2012,09,26,09,57,10.70
2012,09,26,09,58,10.80
2012,09,26,09,59,10.80
2012,09,26,10,00,10.80
2012,09,26,10,01,10.80
2012,09,26,10,02,10.80
2012,09,26,10,03,10.80
2012,09,26,10,04,10.80
2012,09,26,10,05,10.80
2012,09,26,10,06,10.80
2012,09,26,10,07,10.80
2012,09,26,10,08,10.80
2012,09,26,10,09,10.80
2012,09,26,10,10,10.80
2012,09,26,10,11,10.80
2012,09,26,10,12,10.80
2012,09,26,10,13,10.80
2012,09,26,10,14,10.80
2012,09,26,10,15,10.80
2012,09,26,10,16,10.80
2012,09,26,10,17,10.80
2012,09,26,10,18,10.80
2012,09,26,10,19,10.80
2012,09,26,10,20,10.80
2012,09,26,10,21,10.80
2012,09,26,10,22,10.80
2012,09,26,10,23,10.80
2012,09,26,10,24,10.80
2012,09,26,10,25,10.80
2012,09,26,10,26,10.80
2012,09,26,10,27,10.80
2012,09,26,10,28,10.80
2012,09,26,10,29,10.90
2012,09,26,10,30,10.90
2012,09,26,10,31,10.90
2012,09,26,10,32,10.90
2012,09,26,10,33,10.90
2012,09,26,10,34,10.90
2012,09,26,10,35,10.90
2012,09,26,10,36,10.90
2012,09,26,10,37,10.80
2012,09,26,10,38,10.80
2012,09,26,10,39,10.80
2012,09,26,10,40,10.80
2012,09,26,10,41,10.80
2012,09,26,10,42,10.80
2012,09,26,10,43,10.80
2012,09,26,10,44,10.80
2012,09,26,10,45,10.80
2012,09,26,10,46,10.90
2012,09,26,10,47,10.90
2012,09,26,10,48,10.80
2012,09,26,10,49,10.80
2012,09,26,10,50,10.90
2012,09,26,10,51,10.90
2012,09,26,10,52,10.90
2012,09,26,10,53,10.90
2012,09,26,10,54,10.90
2012,09,26,10,55,10.90
2012,09,26,10,56,10.90
2012,09,26,10,57,10.90
2012,09,26,10,58,10.90
2012,09,26,10,59,11.00
2012,09,26,11,00,11.00
2012,09,26,11,01,11.00
2012,09,26,11,02,11.00
2012,09,26,11,03,11.00
2012,09,26,11,04,11.00
2012,09,26,11,05,11.10
2012,09,26,11,06,11.10
2012,09,26,11,07,11.10
2012,09,26,11,08,11.10
2012,09,26,11,09,11.10
2012,09,26,11,10,11.10
2012,09,26,11,11,11.00
2012,09,26,11,12,10.90
2012,09,26,11,13,10.90
2012,09,26,11,14,10.80
2012,09,26,11,15,10.80
2012,09,26,11,16,10.80
2012,09,26,11,17,10.70
2012,09,26,11,18,10.70
2012,09,26,11,19,10.70
2012,09,26,11,20,10.70
2012,09,26,11,21,10.70
2012,09,26,11,22,10.70
2012,09,26,11,23,10.70
2012,09,26,11,24,10.70
2012,09,26,11,25,10.60
2012,09,26,11,26,10.50
2012,09,26,11,27,10.50
2012,09,26,11,28,10.50
2012,09,26,11,29,10.40
2012,09,26,11,30,10.40
2012,09,26,11,31,10.40
2012,09,26,11,32,10.30
2012,09,26,11,33,10.30
2012,09,26,11,34,10.30
2012,09,26,11,35,10.30
2012,09,26,11,36,10.30
2012,09,26,11,37,10.30
2012,09,26,11,38,10.30
2012,09,26,11,39,10.30
2012,09,26,11,40,10.30
2012,09,26,11,41,10.30
2012,09,26,11,42,10.30
2012,09,26,11,43,10.30
2012,09,26,11,44,10.40
2012,09,26,11,45,10.40
2012,09,26,11,46,10.30
2012,09,26,11,47,10.30
2012,09,26,11,48,10.30
2012,09,26,11,49,10.30
2012,09,26,11,50,10.30
2012,09,26,11,51,10.20
2012,09,26,11,52,10.20
2012,09,26,11,53,10.30
2012,09,26,11,54,10.30
2012,09,26,11,55,10.30
2012,09,26,11,56,10.30
2012,09,26,11,57,10.30
2012,09,26,11,58,10.40
2012,09,26,11,59,10.40
2012,09,26,12,00,10.40
2012,09,26,12,01,10.40
2012,09,26,12,02,10.50
2012,09,26,12,03,10.50
2012,09,26,12,04,10.60
2012,09,26,12,05,10.60
2012,09,26,12,06,10.60
2012,09,26,12,07,10.60
2012,09,26,12,08,10.60
2012,09,26,12,09,10.60
2012,09,26,12,10,10.60
2012,09,26,12,11,10.60
2012,09,26,12,12,10.60
2012,09,26,12,13,10.60
2012,09,26,12,14,10.50
2012,09,26,12,15,10.60
2012,09,26,12,16,10.60
2012,09,26,12,17,10.60
2012,09,26,12,18,10.60
2012,09,26,12,19,10.60
2012,09,26,12,20,10.60
2012,09,26,12,21,10.60
2012,09,26,12,22,10.60
2012,09,26,12,23,10.60
2012,09,26,12,24,10.60
2012,09,26,12,25,10.70
2012,09,26,12,26,10.70
2012,09,26,12,27,10.70
2012,09,26,12,28,10.60
2012,09,26,12,29,10.60
2012,09,26,12,30,10.50
2012,09,26,12,31,10.50
2012,09,26,12,32,10.50
2012,09,26,12,33,10.50
2012,09,26,12,34,10.60
2012,09,26,12,35,10.60
2012,09,26,12,36,10.60
2012,09,26,12,37,10.50
2012,09,26,12,38,10.50
2012,09,26,12,39,10.50
2012,09,26,12,40,10.60
2012,09,26,12,41,10.60
2012,09,26,12,42,10.70
2012,09,26,12,43,10.70
2012,09,26,12,44,10.80
2012,09,26,12,45,10.80
2012,09,26,12,46,10.80
2012,09,26,12,47,10.90
2012,09,26,12,48,10.90
2012,09,26,12,49,11.00
2012,09,26,12,50,11.00
2012,09,26,12,51,11.00
2012,09,26,12,52,11.00
2012,09,26,12,53,11.00
2012,09,26,12,54,11.00
2012,09,26,12,55,11.00
2012,09,26,12,56,11.00
2012,09,26,12,57,11.00
2012,09,26,12,58,11.00
2012,09,26,12,59,11.00
2012,09,26,13,00,11.00
2012,09,26,13,01,11.10
2012,09,26,13,02,11.10
2012,09,26,13,03,11.10
2012,09,26,13,04,11.20
2012,09,26,13,05,11.20
2012,09,26,13,06,11.20
2012,09,26,13,07,11.30
2012,09,26,13,08,11.30
2012,09,26,13,09,11.40
2012,09,26,13,10,11.40
2012,09,26,13,11,11.40
2012,09,26,13,12,11.40
2012,09,26,13,13,11.40
2012,09,26,13,14,11.40
2012,09,26,13,15,11.40
2012,09,26,13,16,11.40
2012,09,26,13,17,11.40
2012,09,26,13,18,11.40
2012,09,26,13,19,11.40
2012,09,26,13,20,11.30
2012,09,26,13,21,11.30
2012,09,26,13,22,11.30
2012,09,26,13,23,11.40
2012,09,26,13,24,11.40
2012,09,26,13,25,11.50
2012,09,26,13,26,11.50
2012,09,26,13,27,11.60
2012,09,26,13,28,11.60
2012,09,26,13,29,11.60
2012,09,26,13,30,11.60
2012,09,26,13,31,11.50
2012,09,26,13,32,11.50
2012,09,26,13,33,11.50
2012,09,26,13,34,11.50
2012,09,26,13,35,11.40
2012,09,26,13,36,11.40
2012,09,26,13,37,11.40
2012,09,26,13,38,11.40
2012,09,26,13,39,11.30
2012,09,26,13,40,11.30
2012,09,26,13,41,11.30
2012,09,26,13,42,11.30
2012,09,26,13,43,11.30
2012,09,26,13,44,11.30
2012,09,26,13,45,11.30
2012,09,26,13,46,11.30
2012,09,26,13,47,11.30
2012,09,26,13,48,11.30
2012,09,26,13,49,11.30
2012,09,26,13,50,11.30
2012,09,26,13,51,11.30
2012,09,26,13,52,11.30
2012,09,26,13,53,11.30
2012,09,26,13,54,11.30
2012,09,26,13,55,11.40
2012,09,26,13,56,11.40
2012,09,26,13,57,11.30
2012,09,26,13,58,11.30
2012,09,26,13,59,11.30
2012,09,26,14,00,11.30
2012,09,26,14,01,11.20
2012,09,26,14,02,11.20
2012,09,26,14,03,11.20
2012,09,26,14,04,11.20
2012,09,26,14,05,11.20
2012,09,26,14,06,11.20
2012,09,26,14,07,11.20
2012,09,26,14,08,11.20
2012,09,26,14,09,11.20
2012,09,26,14,10,11.30
2012,09,26,14,11,11.30
2012,09,26,14,12,11.30
2012,09,26,14,13,11.40
2012,09,26,14,14,11.40
2012,09,26,14,15,11.40
2012,09,26,14,16,11.40
2012,09,26,14,17,11.40
2012,09,26,14,18,11.50
2012,09,26,14,19,11.50
2012,09,26,14,20,11.50
2012,09,26,14,21,11.40
2012,09,26,14,22,11.30
2012,09,26,14,23,11.30
2012,09,26,14,24,11.30
2012,09,26,14,25,11.30
2012,09,26,14,26,11.20
2012,09,26,14,27,11.20
2012,09,26,14,28,11.20
2012,09,26,14,29,11.20
2012,09,26,14,30,11.20
2012,09,26,14,31,11.10
2012,09,26,14,32,11.10
2012,09,26,14,33,11.10
2012,09,26,14,34,11.00
2012,09,26,14,35,11.00
2012,09,26,14,36,10.90
2012,09,26,14,37,11.00
2012,09,26,14,38,11.00
2012,09,26,14,39,11.00
2012,09,26,14,40,11.00
2012,09,26,14,41,11.00
2012,09,26,14,42,11.00
2012,09,26,14,43,11.00
2012,09,26,14,44,11.10
2012,09,26,14,45,11.20
2012,09,26,14,46,11.20
2012,09,26,14,47,11.20
2012,09,26,14,48,11.30
2012,09,26,14,49,11.30
2012,09,26,14,50,11.30
2012,09,26,14,51,11.30
2012,09,26,14,52,11.40
2012,09,26,14,53,11.40
2012,09,26,14,54,11.40
2012,09,26,14,55,11.50
2012,09,26,14,56,11.60
2012,09,26,14,57,11.60
2012,09,26,14,58,11.60
2012,09,26,14,59,11.60
2012,09,26,15,00,11.60
2012,09,26,15,01,11.70
2012,09,26,15,02,11.70
2012,09,26,15,03,11.80
2012,09,26,15,04,11.80
2012,09,26,15,05,11.80
2012,09,26,15,06,11.90
2012,09,26,15,07,11.90
2012,09,26,15,08,11.90
2012,09,26,15,09,11.90
2012,09,26,15,10,11.90
2012,09,26,15,11,11.90
2012,09,26,15,12,11.90
2012,09,26,15,13,12.00
2012,09,26,15,14,12.00
2012,09,26,15,15,12.10
2012,09,26,15,16,12.10
2012,09,26,15,17,12.00
2012,09,26,15,18,12.00
2012,09,26,15,19,12.10
2012,09,26,15,20,12.10
2012,09,26,15,21,12.20
2012,09,26,15,22,12.20
2012,09,26,15,23,12.30
2012,09,26,15,24,12.30
2012,09,26,15,25,12.40
2012,09,26,15,26,12.40
2012,09,26,15,27,12.40
2012,09,26,15,28,12.50
2012,09,26,15,29,12.50
2012,09,26,15,30,12.50
2012,09,26,15,31,12.60
2012,09,26,15,32,12.60
2012,09,26,15,33,12.60
2012,09,26,15,34,12.60
2012,09,26,15,35,12.70
2012,09,26,15,36,12.70
2012,09,26,15,37,12.70
2012,09,26,15,38,12.70
2012,09,26,15,39,12.60
2012,09,26,15,40,12.60
2012,09,26,15,41,12.50
2012,09,26,15,42,12.50
2012,09,26,15,43,12.60
2012,09,26,15,44,12.60
2012,09,26,15,45,12.60
2012,09,26,15,46,12.50
2012,09,26,15,47,12.50
2012,09,26,15,48,12.50
2012,09,26,15,49,12.40
2012,09,26,15,50,12.40
2012,09,26,15,51,12.40
2012,09,26,15,52,12.40
2012,09,26,15,53,12.40
2012,09,26,15,54,12.30
2012,09,26,15,55,12.40
2012,09,26,15,56,12.30
2012,09,26,15,57,12.30
2012,09,26,15,58,12.20
2012,09,26,15,59,12.10
2012,09,26,16,00,12.00
2012,09,26,16,01,12.00
2012,09,26,16,02,11.90
2012,09,26,16,03,11.80
2012,09,26,16,04,11.70
2012,09,26,16,05,11.70
2012,09,26,16,06,11.80
2012,09,26,16,07,11.80
2012,09,26,16,08,11.80
2012,09,26,16,09,11.80
2012,09,26,16,10,11.80
2012,09,26,16,11,11.90
2012,09,26,16,12,11.90
2012,09,26,16,13,11.90
2012,09,26,16,14,11.90
2012,09,26,16,15,11.90
2012,09,26,16,16,11.80
2012,09,26,16,17,11.80
2012,09,26,16,18,11.80
2012,09,26,16,19,11.90
2012,09,26,16,20,11.90
2012,09,26,16,21,11.90
2012,09,26,16,22,12.00
2012,09,26,16,23,12.00
2012,09,26,16,24,12.10
2012,09,26,16,25,12.10
2012,09,26,16,26,12.10
2012,09,26,16,27,12.20
2012,09,26,16,28,12.30
2012,09,26,16,29,12.30
2012,09,26,16,30,12.20
2012,09,26,16,31,12.20
2012,09,26,16,32,12.20
2012,09,26,16,33,12.20
2012,09,26,16,34,12.20
2012,09,26,16,35,12.20
2012,09,26,16,36,12.30
2012,09,26,16,37,12.40
2012,09,26,16,38,12.50
2012,09,26,16,39,12.60
2012,09,26,16,40,12.60
2012,09,26,16,41,12.60
2012,09,26,16,42,12.60
2012,09,26,16,43,12.50
2012,09,26,16,44,12.60
2012,09,26,16,45,12.70
2012,09,26,16,46,12.70
2012,09,26,16,47,12.80
2012,09,26,16,48,12.80
2012,09,26,16,49,12.80
2012,09,26,16,50,12.80
2012,09,26,16,51,12.80
2012,09,26,16,52,12.80
2012,09,26,16,53,12.80
2012,09,26,16,54,12.90
2012,09,26,16,55,12.90
2012,09,26,16,56,12.90
2012,09,26,16,57,13.00
2012,09,26,16,58,13.00
2012,09,26,16,59,13.10
2012,09,26,17,00,13.10
2012,09,26,17,01,13.20
2012,09,26,17,02,13.20
2012,09,26,17,03,13.20
2012,09,26,17,04,13.30
2012,09,26,17,05,13.30
2012,09,26,17,06,13.30
2012,09,26,17,07,13.40
2012,09,26,17,08,13.40
2012,09,26,17,09,13.30
2012,09,26,17,10,13.30
2012,09,26,17,11,13.30
2012,09,26,17,12,13.40
2012,09,26,17,13,13.40
2012,09,26,17,14,13.40
2012,09,26,17,15,13.40
2012,09,26,17,16,13.40
2012,09,26,17,17,13.40
2012,09,26,17,18,13.40
2012,09,26,17,19,13.40